ONEWEB-0067, 45425

Orbit data source: Space-Track

ONEWEB-0067, 45425 is a payload satellite owned by One Web (UK) in LEO that was launched on Sat, 21 Mar 2020 UTC via a SOYUZ-2-1B launch vehicle from the Tyuratam Missile And Space Complex (TTMTR). Payload-class satellites include a variety of spacecraft equipped with specific instruments for various scientific and technological missions. These include communications satellites like Starlink; space stations such as the ISS; scientific satellites like the Hubble; Earth observation satellites from companies like Planet Labs, Umbra, and HawkEye 360; GPS; miniature CubeSats for education and research; and military/defense satellites.

Loading next visibility...
Identifier
45425, 2020-020B
Orbit
LEO
Country
Flag of UKUK
Related business
Manufacturer
One Web
Mission
Operational Commercial Communications
Bus & Motor
ARROW, Unknown motor
Mass
148 kg wet, ~140 kg dry
Launch date (UTC)
2020-03-21 (5 years ago)
Launch vehicle
SOYUZ-2-1B
Launch site
Tyuratam Missile And Space Complex (TTMTR)
Object type
Payload
Rocket body
Debris
Shape & HBR
Trap Box + 2 Pan, 2.5 m
Radar Cross Section
2.957 m², Large (>1 m²)

Expand to show TLE details & history
Last TLE update: 13 hours ago

TLE from 13 hours ago
0 ONEWEB-0067
1 45425U 20020B   25243.10377118 -.00001133  00000-0 -32344-2 0  9996
2 45425  87.8770  78.7686 0001832  84.0163 276.1173 13.11410160264712
Epoch: 2025-08-31T02:29Z
TLE epoch observation values (Epoch: 2025-08-31T02:29:25.829Z)
Latitude
-0.00011°
Longitude
61.88246°
Altitude
1,220.45 km
Speed
7.244 km/s
True Right ascension
05h 15m 04s
True Declination
0° 00' 00"
Sunlit
Object was in daylight at epoch
Visualization orbit readout
Latitude
Unknown
Longitude
Unknown
Altitude
Unknown
Speed
Unknown
Apparent Right ascension
Unknown
Apparent Declination
Unknown
Sunlit
N/A
Visualization observer readout
Local Sidereal Time
06:49:42
Azimuth
Unknown
Elevation
Unknown
Doppler factor
Unknown
Orbital elements
Apogee altitude
1,216.218 km
Perigee altitude
1,213.436 km
Semi-major axis
7,592.964 km
Eccentricity
0.00018
Inclination
87.877°
RAAN
78.7686°
Arg. of periapsis
84.0163°
True anomaly
276.09643°
Mean anomaly
276.1173°
Eccentric anomaly
276.10686°
Mean motion
3.28039 °/min
Orbital period
109.74 mins
BSTAR
-0.0032344
Loading maneuver chart data...
Computing Atmospheric mass density...
Loading historical data...
Loading historical data...
Loading historical data...
Loading historical data...
Loading historical data...
Loading historical data...
Loading historical data...

Documentation

Showing up to 5 results
|